Theta_e
322 323 323 322 322 324 323 325 326 326 325 322 323 323 324 328 326 326 329 331 330 330 332 330 329 330 328 324 321 318 317 316 311 315 317 324 326 326 326 327 325 326 318
321 322 322 322 322 323 323 324 326 327 327 326 326 326 324 325 325 323 326 329 330 329 328 329 328 327 328 326 322 321 318 320 314 315 319 319 321 322 324 323 319 318 316
320 321 321 321 322 322 322 323 325 326 325 325 325 325 324 324 324 324 325 325 329 329 329 329 327 328 325 323 323 319 320 319 321 317 315 316 316 317 318 316 315 315 311
319 321 320 321 321 322 322 323 325 325 324 324 323 322 321 322 323 322 322 321 321 324 326 326 326 327 326 325 323 323 322 321 321 317 315 314 315 314 318 313 310 312 310
319 321 321 320 320 321 321 322 323 325 324 323 322 322 322 321 319 322 323 323 321 320 321 319 320 317 314 317 323 324 324 320 318 317 316 315 313 312 314 315 313 310 310
320 320 321 317 318 320 320 321 322 323 323 323 323 322 322 316 301 305 319 323 323 322 320 319 318 314 309 306 309 311 321 324 322 318 317 316 318 316 315 313 313 308 307
320 320 320 317 317 319 318 319 320 322 323 322 322 322 322 319 299 300 306 323 323 322 321 319 314 312 315 316 304 303 303 303 309 324 322 320 320 318 317 314 313 312 312
320 319 319 316 317 318 318 319 320 320 322 322 321 322 322 318 298 297 302 318 318 316 317 317 318 316 313 315 317 317 316 316 317 316 322 324 322 322 318 318 316 314 312
319 319 319 316 317 318 317 318 318 318 318 319 320 320 321 319 297 295 305 314 312 310 309 309 311 310 297 296 314 314 313 312 297 296 296 294 295 297 307 311 309 307 306
319 320 320 317 317 318 320 318 317 318 318 316 316 318 312 319 296 294 304 310 310 306 307 307 296 304 294 294 311 311 309 311 308 305 307 303 298 303 297 312 311 305 304
320 321 321 319 318 320 321 319 318 316 316 315 315 316 316 316 315 295 294 312 309 307 306 307 307 293 293 292 296 309 308 308 303 306 305 305 305 307 306 307 310 307 303
321 320 322 321 317 318 320 319 318 318 317 316 316 315 315 317 303 297 294 296 305 315 314 313 312 294 292 292 294 297 293 294 307 305 304 304 303 303 305 307 309 309 308
321 321 322 322 319 318 319 319 317 318 315 315 313 312 312 313 315 297 295 294 295 310 317 309 300 294 293 294 292 294 290 303 308 307 306 306 306 305 306 305 307 308 309
321 322 323 322 320 319 317 318 317 316 315 314 313 313 314 314 313 313 310 306 297 302 300 309 304 302 299 301 303 302 307 310 308 308 307 307 305 304 303 304 302 302 301
323 323 322 322 321 320 318 317 316 321 316 316 316 316 317 317 317 311 310 313 314 308 309 312 311 310 310 311 312 311 309 308 306 306 304 305 304 305 305 305 302 300 300
322 322 321 321 321 321 319 318 302 301 299 298 298 311 318 304 298 297 296 297 296 293 307 312 313 311 309 314 315 316 315 307 308 306 305 305 303 301 300 303 302 301 300
321 322 322 319 321 320 320 318 317 311 297 295 295 296 296 294 295 296 295 292 290 294 312 308 307 309 311 313 313 314 312 310 307 302 302 299 299 301 299 300 299 300 299
322 307 322 322 322 322 322 321 320 320 320 320 296 298 295 294 297 293 291 296 303 304 313 313 314 316 315 313 311 308 306 303 300 299 300 301 301 300 299 299 299 299 298
321 320 322 322 323 321 324 322 321 321 321 323 316 304 297 291 291 291 294 317 318 316 315 312 310 311 309 304 303 303 299 298 299 299 300 301 301 301 300 300 300 291 292
321 310 313 322 322 322 322 322 322 323 323 322 323 317 311 310 313 313 315 316 310 309 310 304 303 302 299 299 296 298 300 299 300 301 302 301 302 302 301 301 300 298 298
320 320 308 320 322 322 322 321 322 322 322 322 317 310 295 316 313 310 308 305 302 301 299 299 300 298 296 296 298 298 298 298 300 300 299 299 300 300 301 299 299 301 300
321 320 318 319 320 321 320 321 322 320 317 313 308 302 290 307 305 305 303 301 301 302 298 298 297 297 296 297 298 297 297 296 296 297 298 300 300 299 299 300 300 298 298
318 320 319 320 320 309 319 319 317 315 312 309 307 308 309 307 306 303 303 300 297 297 300 298 297 296 297 298 297 297 296 296 297 298 298 298 298 298 299 298 295 294 293
319 319 319 318 317 317 315 313 312 305 310 309 309 307 305 304 301 299 294 295 296 296 298 300 299 297 297 297 297 297 297 298 299 298 298 298 298 297 298 297 297 294 293
320 320 318 316 315 313 312 311 311 310 309 305 303 299 298 294 294 296 296 298 298 297 296 296 296 295 295 297 297 297 288 285 293 287 299 298 297 297 296 296 295 294 293
317 317 315 314 313 312 311 307 307 303 300 299 296 296 295 297 297 297 298 298 296 296 296 297 297 298 298 297 295 287 285 285 291 285 297 298 297 297 296 296 295 294 290
Wind_Speed
3 2 2 4 4 5 6 5 4 5 5 8 9 8 6 7 5 5 4 6 7 8 9 10 11 10 8 7 7 4 5 6 10 5 7 6 5 5 5 5 7 7 8
5 4 2 4 5 6 6 7 6 7 7 9 9 10 9 9 6 5 7 7 9 8 7 8 10 8 8 8 6 4 5 5 9 12 8 5 4 4 4 5 5 5 8
6 5 4 4 4 6 6 6 6 7 8 8 9 11 10 10 9 7 8 9 9 8 8 9 10 9 7 6 5 5 6 6 9 10 8 3 3 4 4 4 5 6 6
7 6 5 4 4 5 5 6 6 6 8 9 9 10 10 10 10 10 10 10 9 8 8 8 8 8 9 9 7 6 7 8 7 8 6 5 4 4 5 7 6 5 5
9 7 6 5 5 5 6 6 6 6 7 8 9 9 9 8 7 11 10 10 10 10 9 8 7 8 9 6 4 6 8 7 7 7 6 5 6 6 9 6 7 6 6
10 9 7 6 6 6 6 6 6 7 7 7 8 8 8 6 8 10 9 9 9 9 8 7 7 8 8 7 7 4 6 9 8 7 7 8 9 8 6 7 7 7 7
10 9 10 9 8 8 8 7 7 7 7 7 6 6 7 7 7 8 7 6 6 6 6 6 5 4 5 7 8 9 8 3 2 6 7 8 7 9 9 9 10 9 9
11 11 10 10 10 9 9 8 7 6 6 6 6 5 5 4 5 6 5 5 4 4 4 4 4 5 4 5 5 5 4 3 2 3 5 5 7 5 10 7 9 9 5
13 13 13 11 10 10 9 9 8 7 7 6 6 7 6 5 7 7 6 5 4 4 3 3 4 5 5 2 6 6 4 4 4 3 2 4 6 5 8 7 8 9 9
15 15 14 13 12 11 10 10 7 7 7 6 6 5 4 6 10 10 7 5 6 5 5 5 2 3 9 6 4 4 4 4 5 4 4 3 4 5 8 11 7 9 9
15 15 15 14 13 12 10 8 8 8 7 7 7 6 7 8 8 11 9 6 6 6 5 5 5 8 8 8 6 6 5 4 4 6 6 5 5 6 6 9 10 10 10
15 15 16 14 12 10 12 10 9 9 8 8 8 7 7 7 8 11 13 12 3 4 5 4 5 13 13 12 9 8 7 6 6 6 7 7 7 7 8 9 12 12 11
16 16 15 15 13 12 13 11 9 10 8 8 7 7 6 6 7 10 11 9 8 6 5 2 5 11 10 9 11 5 7 7 8 8 8 8 7 7 7 8 11 12 13
17 16 14 14 14 12 10 10 9 9 9 9 8 8 7 7 7 7 8 8 7 8 3 6 3 3 5 5 2 8 8 7 7 8 9 8 8 7 8 8 9 9 10
16 15 15 13 14 12 11 11 11 10 10 9 9 8 8 8 8 7 8 6 6 7 7 6 6 5 5 5 5 4 5 5 6 5 6 8 9 9 8 7 8 8 11
17 14 14 13 12 11 11 10 9 8 11 11 3 7 7 6 7 9 11 10 9 12 5 6 4 3 4 4 4 2 2 2 3 4 4 7 7 7 8 8 8 8 11
19 16 13 14 14 13 12 11 11 10 8 9 11 8 7 8 5 8 9 5 9 9 3 2 1 2 3 3 3 4 3 3 3 2 4 5 6 6 6 7 7 8 10
20 18 15 14 14 14 13 13 11 11 10 10 8 3 9 9 7 10 13 12 4 1 2 1 0 2 2 4 4 5 4 3 2 4 3 5 5 6 7 8 8 9 9
17 15 17 14 14 14 13 14 13 13 11 10 7 5 9 11 11 11 9 4 3 3 3 5 4 5 4 4 6 6 4 4 6 5 5 5 5 6 7 8 8 6 8
18 18 16 14 13 14 13 14 13 13 13 11 6 6 8 5 7 7 6 7 6 7 9 1 9 8 5 5 7 4 4 6 5 5 6 6 6 6 7 8 8 9 8
12 12 13 12 12 13 13 13 12 11 8 7 7 6 8 10 10 10 9 9 8 11 8 10 9 7 5 9 5 1 4 5 6 6 6 6 6 6 7 6 6 7 9
11 13 15 14 13 12 12 10 8 9 10 11 12 11 8 12 12 11 11 9 9 11 6 8 7 6 4 6 3 4 5 6 5 5 6 6 6 5 6 7 8 8 8
12 11 13 12 10 9 10 11 11 12 13 14 15 13 12 11 11 11 11 9 7 8 8 7 3 9 6 7 4 5 4 3 4 5 5 5 5 5 5 6 7 7 7
11 12 12 10 11 11 13 13 13 15 16 16 14 13 13 12 12 13 10 11 7 7 7 9 7 10 7 6 4 4 4 5 5 5 5 4 5 5 6 7 7 8 7
12 11 12 12 12 13 14 15 14 15 15 14 13 12 13 12 10 10 5 13 9 9 9 7 7 9 10 11 9 9 7 6 6 7 4 6 7 7 7 7 8 9 10
12 14 13 11 12 14 15 15 15 15 13 12 12 13 12 13 12 11 10 12 10 10 11 9 11 13 12 11 9 5 3 3 3 5 5 6 8 8 9 10 13 10 11
Wind_Direction
175 129 78 79 71 45 62 65 68 88 90 108 126 134 147 140 114 115 136 149 141 142 147 157 146 149 153 150 160 131 141 150 143 133 138 138 127 143 138 155 160 174 155
172 151 120 96 94 72 59 60 53 51 79 102 109 112 106 113 127 132 140 145 146 139 136 146 140 145 148 155 159 131 148 144 146 140 135 142 117 120 129 138 144 141 154
164 156 141 108 101 99 77 72 79 67 64 71 93 101 107 115 121 115 115 115 127 139 148 146 136 145 145 138 141 145 151 149 152 158 150 153 100 153 143 128 136 139 165
162 159 153 141 112 111 104 90 98 93 87 81 77 89 96 109 114 116 115 110 111 121 116 121 131 158 158 159 150 157 143 148 151 154 151 149 169 157 194 177 175 181 167
166 167 161 144 134 134 122 108 98 101 99 97 94 85 88 93 99 112 104 104 106 100 92 88 71 68 60 80 145 171 158 173 168 172 171 181 182 179 200 186 202 183 193
174 171 159 158 154 145 135 125 117 122 119 118 111 108 97 80 56 61 95 103 104 108 107 96 101 107 85 98 112 127 165 171 184 194 194 210 203 207 189 195 197 203 219
180 170 165 164 164 158 152 149 145 141 138 132 126 123 108 110 106 99 98 103 111 112 124 136 143 122 146 121 92 94 75 40 342 212 212 215 211 208 197 201 208 218 229
180 173 171 173 170 164 163 161 152 154 152 149 149 139 137 126 130 118 102 116 126 136 153 156 136 128 88 127 140 131 124 107 104 223 237 241 237 207 205 221 224 233 246
181 178 176 176 176 169 170 165 160 160 164 170 175 171 177 160 165 165 167 149 142 149 152 154 148 143 125 178 156 148 154 173 121 35 344 324 292 247 224 199 209 212 234
184 181 179 177 179 181 175 168 166 176 179 178 177 191 184 190 171 177 184 169 172 178 180 170 201 180 164 182 160 171 200 215 213 226 231 229 227 206 219 227 231 230 238
182 176 176 179 181 181 171 170 171 177 173 185 192 193 207 212 186 184 200 188 188 182 176 183 194 188 190 194 218 200 215 183 201 235 236 231 226 222 216 220 234 239 243
181 177 176 179 183 177 174 175 181 179 185 190 198 207 210 217 220 190 199 225 194 204 201 192 177 182 199 205 206 231 201 205 237 236 242 243 241 239 237 233 233 235 242
184 181 178 178 184 181 181 178 181 186 193 197 201 210 212 205 220 205 200 204 214 242 245 213 183 189 200 216 235 244 187 230 250 252 259 262 252 251 261 255 246 249 247
186 184 179 181 183 186 190 187 192 191 198 200 200 210 207 201 209 209 202 200 204 211 177 211 222 242 240 305 233 204 236 255 274 281 289 307 303 291 279 268 267 264 251
185 185 184 188 187 188 199 194 199 204 202 198 209 212 203 214 213 192 185 195 207 210 201 231 230 228 247 248 245 250 265 256 260 280 293 298 290 283 284 283 272 272 266
184 189 188 188 188 194 195 199 228 248 201 225 44 226 221 244 115 155 182 205 191 147 207 244 255 260 263 284 291 306 315 286 317 290 288 289 298 306 306 302 288 272 276
190 189 187 188 190 195 196 202 208 208 202 224 212 226 245 41 171 148 183 124 122 140 231 113 10 345 316 324 302 332 320 329 352 292 326 302 286 309 303 296 287 287 290
188 182 190 197 192 192 197 203 207 211 210 225 64 239 225 190 156 164 136 129 120 180 214 234 59 6 15 29 23 6 5 13 11 18 326 342 326 314 317 314 311 308 297
191 189 194 188 195 196 193 199 207 211 216 224 130 106 73 89 96 119 158 191 171 137 105 82 55 70 56 50 71 45 316 16 37 7 350 338 331 320 316 314 315 312 303
201 201 193 192 191 194 198 202 203 208 211 216 182 137 135 130 121 121 111 111 103 112 95 87 99 82 75 85 61 353 12 32 23 19 353 340 334 326 329 333 336 333 322
201 197 186 193 194 198 197 203 207 207 197 141 127 112 122 123 117 113 108 103 118 98 101 89 84 86 63 69 44 94 47 5 30 15 357 357 347 344 347 338 327 334 342
196 195 189 194 194 198 200 192 176 144 138 122 112 112 120 112 111 107 103 105 94 88 97 107 102 94 87 88 112 55 54 39 28 14 14 17 9 0 350 349 351 343 343
188 184 189 189 175 156 141 149 142 132 129 127 128 126 115 110 108 104 105 93 84 104 132 108 125 101 90 84 71 63 55 38 35 24 18 13 9 352 4 356 353 346 334
160 163 148 145 152 143 138 134 127 128 132 130 127 123 117 116 115 120 123 116 119 116 108 106 105 90 89 86 78 66 47 29 25 18 351 347 350 349 351 348 346 339 322
136 125 129 140 138 126 124 122 122 124 121 122 118 114 115 116 118 114 146 112 123 119 105 105 94 94 88 81 70 54 36 7 4 303 357 358 358 353 349 339 332 321 327
126 128 124 125 131 129 129 128 128 126 124 125 130 128 135 116 132 130 125 118 124 111 114 108 95 90 81 67 61 42 328 331 4 334 336 7 357 348 348 334 334 336 330